Voltar ao catálogo

STARLINK-37439

AtivoComunicaçõesVLEO
NORAD 69377·PAYLOAD·🇺🇸 United States

Lançado Jun 4, 2026 de Cape Canaveral Space Force Station

Loading…

Próximas Passagens (próximas 24 horas)

TLE

AtualizadoSource: CelesTrak SupGP

Época: Sep 15, 2026, 02:56 UTC

1 69377C 26123AA  26258.12270833 -.00031860  00000+0 -91161-3 0  2583
2 69377  53.1575 166.9855 0001373  90.5100 227.2280 15.35411699    17

Acompanhe STARLINK-37439 em tempo real com AllMySat

Download on the App Store